Date,TemperatureHighF,TemperatureAvgF,TemperatureLowF,DewpointHighF,DewpointAvgF,DewpointLowF,HumidityHigh,HumidityAvg,HumidityLow,PressureMaxIn,PressureMinIn,WindSpeedMaxMPH,WindSpeedAvgMPH,GustSpeedMaxMPH,PrecipitationSumIn
2013-1-1,36.0,26.9,12.0,27.0,16.8,7.0,85,64,49,29.97,29.75,23,11,32,0.00
2013-1-2,27.0,14.8,1.0,18.0,8.5,-6.0,92,76,54,30.25,29.94,17,7,24,0.00
2013-1-3,16.0,5.7,-8.0,10.0,-2.5,-11.0,91,69,52,30.25,29.97,6,1,0,0.00
2013-1-4,37.0,28.0,16.0,23.0,17.5,10.0,85,66,47,29.97,29.84,21,6,30,0.00
2013-1-5,37.0,32.2,21.0,27.0,21.1,16.0,85,63,44,30.24,29.90,21,10,30,0.00
2013-1-6,39.0,30.4,21.0,32.0,24.7,18.0,100,80,60,30.18,29.90,8,2,0,0.00
2013-1-7,36.0,27.1,12.0,32.0,21.5,10.0,100,80,63,30.38,29.99,17,6,25,0.00
2013-1-8,37.0,21.0,9.0,25.0,15.8,5.0,92,81,59,30.37,30.27,6,0,0,0.00
2013-1-9,45.0,26.6,12.0,30.0,20.7,10.0,100,79,45,30.37,29.98,33,4,43,0.00
2013-1-10,43.0,36.6,27.0,32.0,25.1,21.0,80,62,52,30.57,30.11,33,12,47,0.00
2013-1-11,37.0,30.7,23.0,36.0,26.8,19.0,93,85,64,30.55,30.11,13,4,18,0.00
2013-1-12,43.0,38.7,36.0,43.0,38.0,34.0,100,97,93,30.15,30.08,6,2,0,0.00
2013-1-13,45.0,40.5,36.0,45.0,39.9,36.0,100,98,93,30.13,29.93,10,3,18,0.00
2013-1-14,46.0,41.5,34.0,45.0,33.9,23.0,100,76,52,30.33,29.86,23,12,33,0.00
2013-1-15,36.0,32.9,30.0,25.0,21.9,19.0,74,64,51,30.35,30.23,13,8,22,0.00
2013-1-16,30.0,29.5,28.0,30.0,27.4,21.0,100,91,68,30.23,29.82,6,1,0,0.00
2013-1-17,36.0,29.4,21.0,30.0,20.7,7.0,100,71,45,30.17,29.83,23,7,28,0.00
2013-1-18,23.0,17.1,9.0,10.0,3.6,-6.0,78,55,34,30.40,30.09,18,7,24,0.00
2013-1-19,43.0,33.0,21.0,25.0,18.1,10.0,63,54,41,30.25,29.77,12,6,18,0.00
2013-1-20,43.0,34.1,21.0,34.0,21.2,9.0,85,59,35,30.02,29.51,31,13,39,0.00
2013-1-21,27.0,21.4,18.0,18.0,12.7,9.0,85,68,49,30.07,29.80,9,4,17,0.00
2013-1-22,19.0,15.2,9.0,14.0,3.3,-6.0,85,61,34,30.11,29.78,25,12,33,0.00
2013-1-23,10.0,5.4,1.0,5.0,-6.8,-9.0,84,57,46,30.21,30.10,21,9,28,0.00
2013-1-24,12.0,5.3,-6.0,1.0,-5.3,-9.0,84,62,39,30.37,30.15,28,10,37,0.00
2013-1-25,18.0,10.7,3.0,10.0,-1.1,-8.0,92,60,31,30.40,30.07,16,7,27,0.00
2013-1-26,19.0,12.6,3.0,9.0,4.0,0.0,92,70,44,30.33,30.06,18,7,24,0.00
2013-1-27,27.0,17.3,10.0,9.0,3.1,-2.0,85,55,30,30.51,30.33,18,11,25,0.00
2013-1-28,27.0,21.1,18.0,25.0,15.0,1.0,100,78,44,30.46,29.95,10,4,0,0.00
2013-1-29,37.0,31.2,27.0,36.0,29.6,25.0,100,93,86,30.14,29.98,13,2,17,0.00
2013-1-30,54.0,47.0,37.0,54.0,45.9,36.0,100,96,87,30.01,29.30,14,7,22,0.00
2013-1-31,54.0,33.9,25.0,54.0,23.5,18.0,100,66,47,29.63,29.14,35,19,48,0.00
2013-2-1,28.0,23.5,18.0,18.0,9.9,5.0,85,56,42,30.14,29.63,29,14,40,0.00
2013-2-2,27.0,19.5,10.0,14.0,8.9,3.0,85,64,46,30.21,30.02,20,5,29,0.00
2013-2-3,28.0,21.0,12.0,16.0,12.3,9.0,92,70,46,30.03,29.77,6,1,0,0.00
2013-2-4,27.0,20.8,12.0,18.0,12.3,9.0,92,70,46,29.94,29.77,20,9,27,0.00
2013-2-5,28.0,22.0,16.0,16.0,10.9,7.0,85,63,42,30.01,29.88,7,1,0,0.00
2013-2-6,34.0,25.6,18.0,25.0,13.7,1.0,85,62,30,30.37,29.88,25,8,36,0.00
2013-2-7,25.0,18.6,10.0,9.0,2.8,0.0,78,51,35,30.54,30.36,10,6,0,0.00
2013-2-8,30.0,23.1,18.0,27.0,17.4,3.0,100,78,48,30.38,29.84,18,8,24,0.00
2013-2-9,28.0,20.3,7.0,21.0,9.2,-2.0,85,64,25,30.36,29.84,20,10,28,0.00
2013-2-10,28.0,14.3,-4.0,9.0,1.8,-8.0,91,60,27,30.51,30.26,8,2,0,0.00
2013-2-11,43.0,32.5,16.0,36.0,26.6,3.0,93,78,53,30.26,29.64,23,7,33,0.00
2013-2-12,37.0,36.1,32.0,30.0,26.9,23.0,80,69,59,29.94,29.68,30,12,39,0.00
2013-2-13,39.0,33.2,28.0,27.0,22.6,16.0,86,66,38,29.90,29.73,13,3,18,0.00
2013-2-14,39.0,31.3,25.0,27.0,21.8,18.0,86,68,48,29.95,29.72,10,3,17,0.00
2013-2-15,46.0,36.9,28.0,28.0,25.3,21.0,86,64,39,30.01,29.87,20,6,28,0.00
2013-2-16,34.0,29.5,25.0,27.0,15.8,9.0,74,56,43,30.01,29.86,14,8,21,0.00
2013-2-17,25.0,19.4,12.0,10.0,2.1,-4.0,57,46,29,29.94,29.67,29,16,41,0.00
2013-2-18,27.0,17.1,7.0,9.0,0.4,-4.0,65,48,32,30.20,29.93,24,13,39,0.00
2013-2-19,41.0,29.6,16.0,34.0,20.0,9.0,100,69,43,30.15,29.62,22,6,30,0.00
2013-2-20,34.0,27.7,25.0,27.0,15.4,9.0,86,60,39,29.88,29.66,28,16,40,0.00
2013-2-21,25.0,20.2,18.0,18.0,10.6,7.0,85,65,53,30.38,29.86,28,18,39,0.00
2013-2-22,37.0,28.6,19.0,25.0,18.2,12.0,85,65,47,30.43,30.23,12,5,17,0.00
2013-2-23,36.0,35.1,34.0,34.0,30.5,25.0,100,84,69,30.23,29.87,15,6,21,0.00
2013-2-24,39.0,34.2,32.0,34.0,30.0,25.0,100,85,64,29.97,29.78,20,7,30,0.00
2013-2-25,37.0,32.7,28.0,30.0,27.4,27.0,92,80,69,30.24,29.97,10,5,0,0.00
2013-2-26,45.0,34.6,25.0,30.0,26.7,21.0,100,74,48,30.31,30.03,14,3,20,0.00
2013-2-27,39.0,35.6,32.0,37.0,33.3,27.0,100,91,69,30.04,29.56,15,8,22,0.00
2013-2-28,43.0,37.3,34.0,36.0,34.2,32.0,100,89,65,29.61,29.56,13,3,16,0.00
2013-3-1,39.0,35.3,32.0,34.0,30.2,25.0,93,82,69,29.77,29.61,18,9,25,0.00
2013-3-2,34.0,29.4,25.0,25.0,22.2,19.0,86,74,59,29.78,29.71,21,14,29,0.00
2013-3-3,30.0,25.6,21.0,21.0,18.2,16.0,85,73,63,29.76,29.69,23,14,32,0.00
2013-3-4,32.0,28.0,25.0,23.0,19.8,18.0,79,71,59,29.91,29.75,27,15,38,0.00
2013-3-5,43.0,32.4,27.0,27.0,22.6,19.0,92,67,45,30.08,29.91,15,8,22,0.00
2013-3-6,41.0,34.7,27.0,30.0,26.1,21.0,92,71,51,30.13,30.03,20,10,25,0.00
2013-3-7,39.0,34.3,30.0,32.0,24.7,19.0,100,70,47,30.17,30.10,14,8,20,0.00
2013-3-8,43.0,33.5,27.0,32.0,28.4,25.0,100,82,56,30.30,30.11,9,5,0,0.00
2013-3-9,50.0,35.9,21.0,25.0,21.5,18.0,100,59,31,30.35,30.28,9,3,0,0.00
2013-3-10,52.0,38.8,21.0,30.0,24.0,19.0,92,59,32,30.35,30.18,13,5,20,0.00
2013-3-11,48.0,42.5,36.0,41.0,34.3,30.0,86,72,56,30.22,29.99,20,8,33,0.00
2013-3-12,54.0,47.6,37.0,52.0,43.4,30.0,93,85,76,30.00,29.69,17,11,25,0.00
2013-3-13,45.0,37.1,30.0,32.0,26.2,18.0,86,67,33,29.87,29.78,20,10,28,0.00
2013-3-14,32.0,27.1,23.0,21.0,13.0,5.0,68,55,42,29.91,29.82,27,15,38,0.00
2013-3-15,37.0,29.3,19.0,30.0,18.0,7.0,86,63,40,29.94,29.64,17,8,32,0.00
2013-3-16,34.0,28.8,21.0,25.0,14.9,9.0,80,56,34,29.91,29.75,14,6,17,0.00
2013-3-17,36.0,27.2,18.0,16.0,8.3,3.0,73,47,24,30.33,29.91,22,10,28,0.00
2013-3-18,36.0,26.1,12.0,27.0,7.6,0.0,92,50,22,30.44,30.08,14,4,0,0.00
2013-3-19,34.0,30.3,28.0,32.0,28.6,21.0,100,92,74,30.10,29.70,18,4,28,0.00
2013-3-20,36.0,28.4,19.0,21.0,18.8,16.0,92,68,47,29.81,29.75,21,10,27,0.00
2013-3-21,36.0,25.9,14.0,19.0,12.3,7.0,92,60,31,29.81,29.65,15,6,20,0.00
2013-3-22,36.0,28.1,21.0,27.0,18.7,10.0,92,68,53,29.82,29.68,25,9,36,0.00
2013-3-23,37.0,33.6,30.0,27.0,21.7,18.0,86,62,44,29.89,29.77,24,15,36,0.00
2013-3-24,45.0,35.7,30.0,25.0,21.1,18.0,74,56,35,29.90,29.75,14,8,22,0.00
2013-3-25,43.0,35.2,28.0,28.0,24.6,21.0,80,65,48,29.79,29.53,15,8,22,0.00
2013-3-26,46.0,39.6,34.0,28.0,23.0,16.0,80,53,28,29.84,29.61,12,5,23,0.00
2013-3-27,50.0,40.5,36.0,30.0,26.2,18.0,74,57,39,29.95,29.82,25,13,38,0.00
2013-3-28,48.0,40.7,36.0,34.0,31.4,28.0,86,70,52,30.09,29.94,16,12,24,0.00
2013-3-29,48.0,42.1,37.0,34.0,29.9,28.0,74,62,49,30.13,30.06,22,11,29,0.00
2013-3-30,54.0,44.3,37.0,30.0,24.2,16.0,69,48,25,30.13,30.05,20,10,27,0.00
2013-3-31,55.0,41.8,27.0,39.0,25.4,-99.9,93,58,27,30.11,29.71,21,7,29,0.00
2013-4-1,48.0,39.5,30.0,43.0,30.7,12.0,100,74,34,29.87,29.57,32,10,40,0.00
2013-4-2,36.0,30.6,25.0,25.0,19.3,14.0,92,64,40,30.01,29.86,29,13,43,0.00
2013-4-3,39.0,31.6,25.0,25.0,16.3,9.0,86,55,29,30.27,30.00,29,16,38,0.00
2013-4-4,54.0,40.4,28.0,21.0,18.7,16.0,74,45,23,30.34,29.96,18,8,27,0.00
2013-4-5,52.0,41.3,30.0,32.0,23.8,16.0,86,52,27,29.99,29.78,24,10,35,0.00
2013-4-6,46.0,36.2,28.0,28.0,8.4,1.0,74,34,16,30.29,29.99,17,8,29,0.00
2013-4-7,61.0,50.7,28.0,37.0,26.8,16.0,70,41,21,30.25,29.83,27,12,41,0.00
2013-4-8,61.0,50.5,43.0,37.0,33.1,28.0,75,53,29,30.14,29.93,14,5,20,0.00
2013-4-9,57.0,53.2,48.0,46.0,41.8,36.0,87,65,50,30.06,29.81,27,8,36,0.00
2013-4-10,57.0,49.4,46.0,52.0,46.3,43.0,100,89,71,30.01,29.86,15,4,18,0.00
2013-4-11,46.0,39.1,32.0,45.0,30.9,21.0,100,73,44,30.14,29.90,15,8,22,0.00
2013-4-12,39.0,35.0,32.0,36.0,32.9,25.0,100,91,69,30.13,29.77,10,5,0,0.00
2013-4-13,50.0,41.9,36.0,39.0,36.7,36.0,100,82,57,29.94,29.80,14,2,32,0.00
2013-4-14,46.0,40.8,32.0,37.0,30.4,21.0,93,68,39,30.24,29.94,20,8,28,0.00
2013-4-15,61.0,44.0,27.0,34.0,28.5,23.0,92,59,29,30.37,30.22,13,4,22,0.00
2013-4-16,59.0,52.4,45.0,54.0,41.9,28.0,93,67,46,30.30,30.01,25,10,39,0.00
2013-4-17,63.0,52.0,41.0,41.0,33.6,25.0,80,53,23,30.33,30.13,17,10,22,0.00
2013-4-18,64.0,51.2,36.0,46.0,34.2,28.0,80,54,29,30.34,30.02,22,10,35,0.00
2013-4-19,72.0,61.0,45.0,61.0,53.8,39.0,93,78,64,30.02,29.52,27,14,47,0.00
2013-4-20,52.0,44.2,36.0,39.0,31.2,18.0,86,62,37,30.32,29.73,23,10,33,0.00
2013-4-21,52.0,39.5,30.0,21.0,18.3,14.0,63,44,23,30.65,30.32,16,7,30,0.00
2013-4-22,59.0,44.4,30.0,27.0,21.0,16.0,69,42,19,30.70,30.49,15,6,23,0.00
2013-4-23,54.0,43.7,30.0,37.0,31.1,27.0,86,61,49,30.52,30.14,10,4,0,0.00
2013-4-24,72.0,53.5,32.0,48.0,39.7,30.0,100,64,35,30.14,29.68,5,5,21,0.00
2013-4-25,63.0,47.4,39.0,48.0,30.6,23.0,87,54,30,30.26,29.76,18,6,25,0.00
2013-4-26,57.0,46.6,34.0,36.0,29.5,25.0,80,53,30,30.45,30.26,16,8,27,0.00
2013-4-27,64.0,49.9,32.0,36.0,28.4,14.0,80,48,14,30.46,30.28,8,2,0,0.00
2013-4-28,73.0,56.6,36.0,37.0,33.4,-99.9,93,49,21,30.31,30.10,14,4,21,0.00
2013-4-29,59.0,55.5,52.0,46.0,38.9,28.0,81,55,33,30.23,30.16,15,7,23,0.00
2013-4-30,73.0,59.9,46.0,48.0,41.3,30.0,93,55,26,30.30,30.21,13,4,17,0.00
2013-5-1,75.0,62.2,41.0,37.0,30.8,25.0,75,33,16,30.45,30.29,9,3,0,0.00
2013-5-2,81.0,65.2,43.0,45.0,38.3,30.0,87,42,19,30.46,30.26,16,2,25,0.00
2013-5-3,72.0,62.2,52.0,39.0,32.4,25.0,47,33,19,30.48,30.31,12,5,20,0.00
2013-5-4,75.0,62.2,43.0,45.0,38.7,28.0,87,46,23,30.36,30.16,10,3,17,0.00
2013-5-5,75.0,61.8,46.0,43.0,35.2,25.0,87,42,16,30.29,30.14,10,4,16,0.00
2013-5-6,75.0,60.6,45.0,48.0,36.3,19.0,87,47,12,30.26,30.08,8,4,0,0.00
2013-5-7,81.0,66.5,48.0,54.0,47.6,41.0,93,55,25,30.17,30.03,12,3,16,0.00
2013-5-8,72.0,64.9,59.0,61.0,57.6,54.0,100,78,56,30.13,29.99,8,4,12,0.00
2013-5-9,73.0,62.0,52.0,57.0,53.2,48.0,100,74,40,30.01,29.86,9,3,0,0.00
2013-5-10,77.0,64.9,52.0,55.0,51.0,-99.9,100,65,41,29.98,29.82,10,3,0,0.00
2013-5-11,70.0,62.1,55.0,63.0,56.3,46.0,93,81,56,29.84,29.67,16,7,21,0.00
2013-5-12,59.0,52.4,43.0,48.0,36.1,-99.9,81,58,26,29.87,29.68,24,10,33,0.00
2013-5-13,52.0,44.4,37.0,32.0,27.3,21.0,69,51,37,30.09,29.86,20,10,29,0.00
2013-5-14,57.0,46.8,36.0,34.0,29.0,25.0,75,52,30,30.12,30.01,15,6,20,0.00
2013-5-15,64.0,48.2,30.0,52.0,38.6,28.0,93,71,40,30.04,29.60,15,4,27,0.00
2013-5-16,79.0,60.1,45.0,46.0,20.9,-99.9,87,42,16,29.87,29.68,31,10,41,0.00
2013-5-17,72.0,58.0,46.0,45.0,35.0,-99.9,71,48,22,30.23,29.87,15,6,20,0.00
2013-5-18,73.0,59.1,39.0,48.0,42.0,37.0,100,58,26,30.31,30.20,10,3,16,0.00
2013-5-19,59.0,54.8,45.0,55.0,51.6,43.0,100,88,71,30.30,30.16,13,5,20,0.00
2013-5-20,81.0,66.8,55.0,64.0,58.6,54.0,100,76,50,30.16,29.93,10,4,0,0.00
2013-5-21,90.0,72.4,59.0,64.0,62.3,57.0,100,73,38,29.96,29.77,21,4,30,0.00
2013-5-22,75.0,68.9,63.0,70.0,65.2,61.0,100,88,73,29.89,29.77,30,6,41,0.00
2013-5-23,75.0,69.5,64.0,68.0,63.9,61.0,93,82,64,29.83,29.73,14,4,22,0.00
2013-5-24,64.0,51.2,45.0,63.0,48.7,41.0,100,90,81,30.02,29.67,21,10,31,0.00
2013-5-25,46.0,45.2,45.0,43.0,41.2,39.0,93,86,75,30.01,29.93,20,12,33,0.00
2013-5-26,59.0,50.7,45.0,43.0,38.4,36.0,81,64,41,30.12,29.88,23,11,31,0.00
2013-5-27,70.0,58.4,45.0,39.0,35.1,30.0,81,43,24,30.21,30.11,21,12,25,0.00
2013-5-28,72.0,57.7,41.0,54.0,41.5,32.0,93,58,28,30.22,30.12,13,4,18,0.00
2013-5-29,79.0,64.0,57.0,68.0,59.5,54.0,100,86,65,30.12,29.91,12,6,18,0.00
2013-5-30,73.0,73.0,73.0,68.0,68.0,68.0,83,83,83,29.91,29.91,9,9,0,0.00
2013-5-31,91.0,84.2,73.0,68.0,64.3,61.0,78,53,36,29.98,29.93,10,3,0,0.00
2013-6-1,91.0,79.3,64.0,66.0,64.0,59.0,93,62,33,29.98,29.82,13,4,21,0.00
2013-6-2,86.0,74.8,68.0,70.0,65.5,-99.9,94,77,50,29.84,29.70,21,6,35,0.00
2013-6-3,68.0,62.8,54.0,66.0,50.0,34.0,93,64,36,29.95,29.82,22,10,28,0.00
2013-6-4,70.0,59.0,48.0,45.0,40.6,37.0,76,52,32,30.13,29.95,23,14,28,0.00
2013-6-5,73.0,62.2,46.0,52.0,42.7,37.0,87,51,30,30.22,30.10,10,2,0,0.00
2013-6-6,72.0,61.7,54.0,55.0,48.8,45.0,100,65,40,30.15,30.03,15,5,24,0.00
2013-6-7,57.0,55.5,55.0,55.0,54.4,54.0,100,94,93,30.04,29.80,13,7,0,0.00
2013-6-8,70.0,61.2,54.0,57.0,55.4,52.0,100,82,64,30.05,29.74,20,10,25,0.00
2013-6-9,77.0,65.8,54.0,55.0,54.1,52.0,93,67,43,30.19,30.05,14,6,21,0.00
2013-6-10,64.0,60.2,54.0,63.0,57.8,52.0,100,91,77,30.19,29.89,8,3,0,0.00
2013-6-11,66.0,62.1,59.0,64.0,58.9,55.0,100,89,77,29.89,29.59,21,6,30,0.00
2013-6-12,73.0,63.5,55.0,55.0,52.4,48.0,93,68,40,29.86,29.66,20,9,29,0.00
2013-6-13,57.0,55.4,52.0,55.0,53.9,48.0,100,94,87,29.84,29.68,12,4,0,0.00
2013-6-14,73.0,63.3,54.0,63.0,55.7,52.0,100,76,53,29.88,29.70,15,5,20,0.00
2013-6-15,75.0,66.3,57.0,55.0,47.3,39.0,87,53,28,30.00,29.88,21,9,25,0.00
2013-6-16,70.0,62.4,54.0,63.0,54.6,43.0,93,76,54,29.97,29.71,13,4,20,0.00
2013-6-17,82.0,67.6,55.0,64.0,58.9,54.0,100,76,39,29.92,29.80,23,4,30,0.00
2013-6-18,64.0,60.3,54.0,57.0,53.2,50.0,100,77,63,29.98,29.91,16,6,17,0.00
2013-6-19,73.0,61.6,46.0,52.0,44.0,37.0,100,57,30,30.18,29.97,10,3,16,0.00
2013-6-20,79.0,60.3,46.0,50.0,46.5,45.0,93,65,31,30.28,30.18,10,2,0,0.00
2013-6-21,75.0,75.0,75.0,57.0,57.0,57.0,53,53,53,30.20,30.20,3,3,0,0.00
2013-7-1,73.0,70.1,68.0,68.0,66.1,66.0,93,88,83,30.02,29.92,8,2,0,0.00
2013-7-2,77.0,68.2,64.0,72.0,66.8,63.0,100,94,83,30.11,30.03,8,5,0,0.00
2013-7-3,81.0,76.5,72.0,70.0,70.0,70.0,94,82,69,30.18,30.12,5,3,0,0.00
2013-7-4,81.0,81.0,81.0,70.0,70.0,70.0,69,69,69,30.18,30.18,5,5,0,0.00
2013-7-5,90.0,83.2,73.0,75.0,71.2,68.0,88,67,52,30.17,30.03,9,5,21,0.00
2013-7-6,86.0,81.1,72.0,70.0,65.9,63.0,94,61,45,30.12,30.05,14,8,21,0.00
2013-7-7,90.0,80.2,72.0,73.0,71.2,68.0,94,75,52,30.04,29.92,10,3,0,0.00
2013-7-25,72.0,66.0,52.0,54.0,50.0,46.0,81,58,40,30.09,30.04,5,4,0,0.00
2013-7-26,75.0,67.4,57.0,59.0,56.0,52.0,87,68,50,30.09,30.01,5,2,0,0.00
2013-7-27,82.0,75.8,55.0,63.0,57.7,52.0,93,55,34,30.04,29.94,12,6,20,0.00
2013-7-28,73.0,70.1,66.0,68.0,63.7,61.0,94,80,73,29.99,29.93,13,5,17,0.00
2013-7-29,77.0,67.8,63.0,66.0,60.0,52.0,100,78,43,30.12,29.96,12,5,16,0.00
2013-7-30,77.0,66.4,57.0,57.0,54.8,54.0,87,67,44,30.17,30.10,13,6,18,0.00
2013-7-31,81.0,67.4,57.0,57.0,55.0,54.0,87,65,39,30.17,30.03,8,2,0,0.00
2013-8-4,75.0,64.2,55.0,57.0,52.8,48.0,87,67,43,29.97,29.86,23,7,29,0.00
2013-8-5,75.0,60.9,55.0,54.0,50.4,43.0,87,70,31,30.06,29.97,13,9,20,0.00
2013-8-6,81.0,62.9,50.0,52.0,48.8,46.0,87,64,32,30.13,30.06,6,2,0,0.00
2013-8-7,79.0,71.1,64.0,61.0,59.3,55.0,73,66,54,30.13,30.04,13,8,23,0.00
2013-8-8,84.0,72.8,70.0,72.0,66.4,63.0,88,81,58,30.02,29.96,12,5,17,0.00
2013-8-9,77.0,73.4,72.0,72.0,68.0,66.0,94,83,73,29.93,29.80,15,8,18,0.00
2013-8-10,77.0,68.7,61.0,64.0,49.9,43.0,88,52,35,30.07,29.87,21,12,28,0.00